Location: Central Falls
(41.8900°N, 71.3929°W)
Time: 21:17:27
(UTC+00:00)

Courier 1B Rocket - Pass Details

Date: 05 December 2023
Orbit: 920 x 1202 km, 28.2° (Epoch: 04 March)

Event Time Altitude Azimuth Distance (km) Brightness Sun altitude
Rises 17:42:08 0° 237° (WSW) 3,694 8.8 23.9°
Reaches altitude 10° 17:45:26 10° 223° (SW) 2,701 8.6 23.7°
Maximum altitude 17:50:16 22° 174° (S) 1,913 8.1 23.5°
Drops below altitude 10° 17:54:58 10° 125° (SE) 2,616 7.5 23.2°
Sets 17:58:06 0° 111° (ESE) 3,548 8.0 23.0°
